Theta_e
325 324 319 312 311 314 317 317 316 317 319 319 319 318 318 318 317 317 317 316 316 315 315 315 315 315 315 314 313 313 313 313 313 312 312 312 311 310 309 308 308 307 306 306 305 305 305 305 305 305 305 305 305 305 305 306 306 306 305 305 305 305 305 305 305 306 306 305 304 304 303 302 302 302 302 302 302 302 302 303 302 302 303 304 305
324 324 320 314 314 318 318 317 316 317 319 320 320 320 319 319 319 318 318 317 317 318 318 317 316 316 317 317 317 317 316 315 315 315 315 314 314 313 312 311 311 310 308 307 307 307 306 306 305 305 305 305 305 305 305 305 306 305 305 305 305 304 304 304 304 305 307 307 306 306 305 305 304 302 302 302 302 302 302 302 302 302 303 304 306
323 322 319 316 318 318 317 318 319 319 319 319 319 319 319 319 319 319 319 318 318 318 319 318 317 316 316 317 318 318 318 318 318 318 317 317 316 316 315 315 314 313 312 311 309 308 308 307 307 306 306 306 306 305 305 305 305 305 305 304 304 303 303 303 303 304 305 307 307 307 307 307 305 303 302 302 302 302 302 302 302 302 302 304 305
321 321 319 317 318 318 316 319 321 320 320 319 319 320 320 319 320 320 320 319 319 318 318 317 317 317 316 317 318 318 318 318 318 318 318 318 318 318 317 317 316 316 315 315 313 311 310 309 308 308 307 307 307 307 306 305 305 304 304 304 304 303 303 303 302 302 303 305 306 306 305 305 304 302 302 303 302 302 302 302 302 302 302 302 303
320 320 320 320 320 320 319 319 320 321 321 321 321 320 319 320 321 321 321 320 320 319 318 317 317 317 317 317 318 318 318 318 318 318 318 319 319 319 319 318 318 317 317 317 316 314 313 311 310 309 309 309 309 309 309 308 306 305 304 304 303 303 303 303 302 302 301 302 304 304 304 304 304 303 302 303 303 303 302 301 302 302 303 303 302
320 321 321 322 322 322 321 319 319 321 320 320 320 320 319 320 321 321 322 321 320 320 319 319 318 318 319 319 320 319 319 318 318 318 318 319 319 319 319 318 318 318 318 318 317 316 316 314 313 311 311 311 311 310 310 310 309 307 305 304 303 303 303 302 302 302 302 302 303 304 305 305 305 305 303 302 302 303 304 303 302 302 302 303 303
321 322 322 323 323 322 321 320 320 321 320 319 319 319 320 321 322 322 322 322 321 321 320 319 318 318 318 320 320 320 320 320 319 319 319 319 319 319 319 318 318 318 318 318 317 317 317 316 316 314 313 312 311 311 311 310 310 309 307 305 304 303 302 302 301 301 302 302 302 304 306 306 305 305 304 303 301 301 302 303 304 303 302 301 301
322 322 323 323 322 321 321 321 321 321 320 319 319 319 318 319 321 321 321 321 321 320 319 318 317 317 317 318 318 318 319 319 319 319 319 319 319 319 319 319 318 318 318 317 317 317 317 317 317 316 315 313 312 312 312 311 310 309 308 306 305 303 302 301 301 301 301 302 302 303 304 305 304 303 303 303 301 301 300 300 302 303 302 302 300
322 322 322 322 322 321 320 320 320 320 319 320 320 320 319 318 318 319 319 319 318 318 317 317 317 317 317 317 317 317 317 317 317 318 318 319 319 319 319 318 318 317 317 317 317 317 317 317 317 316 315 314 312 312 313 312 311 309 308 307 305 303 301 300 300 301 301 301 302 302 303 303 301 300 301 300 299 300 299 298 299 300 300 301 300
321 321 321 321 321 320 319 319 318 318 318 318 317 317 316 314 313 313 314 314 314 314 313 314 315 315 316 317 317 317 317 316 316 316 317 318 318 319 319 318 318 317 317 317 317 316 316 317 317 316 315 314 312 312 312 312 311 310 309 308 306 303 301 300 300 300 300 301 302 302 301 301 299 298 298 298 297 297 298 297 298 298 298 299 300
316 316 316 315 315 314 313 312 311 311 311 311 310 310 311 311 311 312 314 314 314 314 314 315 316 317 318 318 317 318 318 317 318 318 318 318 319 319 319 318 318 318 318 317 317 317 317 317 316 316 315 314 313 311 311 311 310 309 309 308 307 305 302 301 301 300 300 300 301 300 299 298 297 296 296 296 296 296 297 297 297 297 297 297 298
311 311 310 310 309 308 308 308 308 308 308 308 308 310 311 312 313 315 316 317 317 317 317 317 317 317 318 318 317 317 317 317 318 318 319 320 320 320 320 319 319 318 318 317 317 317 317 316 316 315 314 314 312 311 310 310 309 308 308 308 308 307 304 302 301 301 300 300 300 299 298 296 296 296 296 296 296 296 296 296 296 296 296 297 297
308 309 308 307 307 307 307 308 308 308 308 308 309 309 310 311 312 314 316 316 317 316 316 316 316 316 317 317 316 315 314 314 315 316 318 319 320 320 320 319 319 318 318 317 317 317 316 315 315 314 313 312 311 310 310 309 309 308 308 308 308 307 305 303 301 300 299 299 299 299 298 296 295 295 295 295 295 296 296 296 296 296 296 296 296
307 308 307 307 307 306 307 307 307 307 307 307 308 308 309 310 310 311 312 313 313 313 314 314 315 315 315 315 315 314 312 310 311 313 315 317 318 319 319 319 318 318 318 318 317 317 315 314 314 313 312 311 310 309 308 307 307 308 308 308 307 305 303 302 301 300 299 299 298 298 297 295 295 295 295 295 295 295 295 295 295 295 296 296 296
307 307 307 307 307 307 307 306 306 307 307 307 307 308 307 307 307 308 309 309 310 311 312 313 314 313 313 313 314 314 312 310 309 310 311 312 313 314 315 317 318 318 318 318 317 315 314 313 312 312 311 310 309 307 306 306 307 308 307 306 305 303 302 301 300 299 299 298 297 297 296 295 295 295 295 295 295 295 295 295 295 295 295 295 296
307 307 308 307 307 307 306 306 306 307 307 307 307 307 305 304 303 303 303 304 305 306 307 309 310 311 312 313 313 313 312 309 308 307 307 308 308 309 311 313 315 317 317 316 316 314 313 312 312 311 310 308 307 305 305 306 307 307 305 304 303 302 301 300 299 299 299 298 297 297 296 295 295 295 295 295 295 295 294 294 294 294 294 294 295
307 307 307 307 307 306 306 306 307 307 307 307 306 305 304 302 301 301 301 300 300 301 302 304 307 309 310 311 311 312 311 309 307 305 305 306 307 308 309 311 314 315 315 315 315 313 312 311 311 309 307 306 305 305 305 305 305 304 304 303 302 301 300 300 299 299 299 298 297 296 296 295 295 295 295 295 294 294 294 294 294 294 294 294 295
307 307 307 307 306 306 306 306 307 307 307 306 305 304 304 304 303 303 302 301 300 299 300 301 304 307 309 310 311 311 311 310 308 306 306 307 308 309 310 312 314 314 314 314 313 312 311 310 309 307 306 306 305 305 305 304 303 303 302 301 301 301 300 300 299 298 298 297 296 296 295 295 295 294 294 294 294 294 294 294 294 294 294 294 294
307 307 306 307 307 306 306 307 306 307 306 306 306 306 305 305 304 303 303 303 302 301 300 300 302 304 307 309 310 311 311 310 309 309 308 309 309 310 311 312 313 313 312 312 311 310 310 309 307 306 306 306 306 305 304 303 302 302 301 301 300 300 299 298 297 297 296 296 295 295 294 294 294 294 294 294 294 294 294 294 294 294 294 294 294
306 306 306 306 306 306 306 306 306 306 306 306 306 306 306 305 304 304 305 304 304 304 302 300 300 301 304 307 309 310 311 311 311 311 311 310 310 311 312 312 312 311 311 311 310 309 308 307 307 307 306 306 305 304 304 303 302 301 300 299 298 297 297 296 296 295 295 294 294 294 294 294 294 294 293 293 293 293 293 293 293 293 293 293 293
304 304 304 305 305 305 305 306 306 306 306 305 305 305 304 305 305 305 305 305 305 305 303 302 300 300 302 306 309 310 311 311 312 312 311 311 310 311 312 312 311 310 310 309 308 308 307 307 306 306 305 304 304 303 303 302 301 299 298 297 296 296 295 295 294 294 294 294 294 294 293 293 293 293 292 292 292 292 292 292 292 292 292 292 292
304 304 304 304 304 304 304 305 305 305 305 305 305 305 305 305 305 306 305 305 305 305 304 302 301 301 303 306 309 310 311 311 312 311 311 311 310 309 311 311 310 309 309 308 307 307 307 306 305 304 303 302 302 301 301 300 298 297 296 295 295 294 294 294 294 294 294 294 293 293 293 292 292 292 292 291 291 291 291 291 291 292 291 291 292
303 303 304 304 305 305 305 305 305 306 306 305 305 305 305 305 305 305 305 305 305 305 304 303 302 303 306 308 310 310 310 311 311 311 311 310 309 308 308 309 309 309 308 307 306 306 305 305 304 303 302 301 300 299 298 297 295 294 294 294 294 293 293 294 294 294 293 293 292 292 292 291 291 291 291 291 291 291 291 291 291 291 291 291 291
302 302 302 303 303 304 305 305 305 305 305 305 305 305 305 305 305 304 304 304 305 304 304 305 304 305 308 309 310 310 310 310 310 311 310 309 308 307 306 306 307 307 307 305 304 303 303 302 301 301 300 299 298 296 295 294 293 293 293 293 294 294 293 293 293 293 292 292 292 291 291 290 290 290 290 290 290 290 290 290 290 290 290 290 291
302 302 303 303 303 304 304 304 305 305 305 305 305 304 304 304 304 304 304 304 305 305 306 306 306 306 307 308 308 309 309 310 309 309 309 307 307 306 305 305 305 305 306 305 304 303 301 300 299 298 297 296 295 293 293 293 293 293 294 294 293 293 293 293 292 292 292 291 291 291 290 290 290 290 289 289 289 290 290 290 290 290 290 290 290
302 302 303 303 303 303 303 304 304 304 304 304 304 303 304 304 304 305 305 305 306 306 306 307 306 306 305 305 307 308 309 309 308 308 307 306 305 305 305 305 305 305 305 304 303 301 300 299 297 296 294 293 293 293 293 293 293 294 293 293 293 293 292 292 291 291 291 290 290 290 289 289 289 289 289 289 289 289 289 290 289 289 289 289 289
302 302 302 302 302 302 303 303 303 303 303 303 304 304 304 304 304 304 304 305 306 307 307 307 307 306 305 305 306 308 308 307 307 306 305 305 304 304 304 304 304 303 303 301 299 298 297 296 295 293 293 293 293 293 293 293 293 293 293 293 292 292 291 291 290 290 290 289 289 289 289 289 289 289 289 289 289 289 289 289 289 289 289 289 289
301 302 302 302 302 302 302 303 302 303 303 304 304 304 304 304 304 303 304 305 307 308 308 307 306 305 305 306 307 307 307 306 305 304 304 303 303 303 303 302 301 300 299 297 296 295 294 293 293 293 292 293 293 293 293 293 293 293 292 292 291 291 290 290 290 289 289 289 289 289 289 289 289 289 289 289 289 289 289 289 289 289 289 289 289
300 301 301 301 302 302 302 302 302 302 302 303 303 303 303 303 304 304 305 307 307 307 306 305 304 305 305 306 306 306 306 305 304 303 302 302 301 301 300 299 298 297 295 294 293 293 293 293 292 292 292 293 293 293 293 293 292 292 292 291 291 290 290 290 290 289 289 289 289 289 289 289 289 289 289 289 289 289 289 289 289 289 289 289 289
300 300 300 300 300 301 301 301 302 302 302 302 302 302 302 302 304 305 306 306 306 305 304 304 304 305 305 305 305 305 304 304 302 301 301 300 300 298 297 296 295 294 293 293 293 293 293 292 292 292 293 293 293 293 293 293 292 292 292 291 291 290 290 290 289 289 289 289 289 289 289 289 290 290 290 290 290 290 290 289 289 289 289 288 288
300 300 300 300 299 300 300 300 300 301 302 302 302 302 302 303 304 305 305 305 304 303 304 304 305 305 304 304 304 304 303 301 300 300 299 299 297 296 295 294 293 293 293 294 294 293 292 292 292 293 293 292 292 292 292 292 292 292 291 291 290 290 290 290 289 289 289 289 289 289 289 290 290 290 290 290 290 290 290 290 289 289 289 289 288
300 300 300 300 300 300 299 299 300 301 302 302 302 303 303 304 304 305 305 304 304 304 305 305 305 305 304 303 304 304 302 299 298 299 298 297 295 294 293 293 293 293 294 294 293 292 292 292 292 292 292 292 292 292 292 292 291 291 290 290 290 290 289 289 289 289 289 289 289 289 289 290 290 290 290 290 290 289 289 289 289 289 289 288 288
300 300 300 300 300 299 299 300 300 301 302 302 302 302 303 304 304 304 304 304 304 305 305 305 304 304 304 303 303 303 301 299 298 297 296 295 294 294 294 294 294 294 294 293 293 292 292 292 292 292 292 292 292 292 291 291 290 290 290 290 290 290 289 289 289 289 289 289 290 290 290 290 290 290 290 289 289 288 288 288 288 288 288 288 288
298 299 300 300 300 300 300 300 301 302 302 302 302 302 303 303 303 303 303 304 304 304 304 304 303 303 303 302 301 300 299 298 297 296 295 294 294 294 294 294 294 294 293 293 292 292 291 291 291 291 291 291 291 291 291 291 290 290 290 290 290 290 290 290 290 290 290 290 290 290 290 290 289 289 289 289 289 288 288 288 288 288 288 288 288
296 297 298 300 300 300 301 301 302 302 302 302 303 303 303 303 303 303 303 303 304 304 303 303 302 302 302 301 299 298 297 296 296 295 295 294 294 294 294 294 293 293 293 292 292 291 291 291 291 291 291 291 291 291 291 290 290 290 290 290 290 290 290 290 290 290 290 290 290 290 290 290 289 289 289 289 289 289 288 288 288 288 288 288 288
296 296 297 298 299 300 301 301 301 302 302 303 303 303 303 303 303 304 304 304 304 303 302 302 301 300 299 298 297 296 296 296 295 295 295 294 294 294 294 294 294 294 293 293 292 291 291 291 291 291 291 291 291 291 290 290 290 290 290 290 290 290 290 290 290 290 290 290 290 290 290 290 290 289 289 289 289 289 289 289 289 289 289 289 288
296 296 296 297 298 300 301 301 301 302 302 302 303 303 303 303 303 303 303 303 303 302 301 300 299 298 296 295 295 295 295 295 295 294 294 294 294 294 294 294 294 294 293 292 292 291 291 291 291 292 292 292 291 291 290 290 290 290 290 290 290 290 290 290 290 290 290 290 290 290 290 290 290 290 289 289 289 289 289 289 289 289 289 289 289
296 296 296 296 297 298 299 300 301 301 302 303 303 303 303 302 302 302 302 302 301 300 299 298 296 295 295 295 296 296 295 295 294 294 294 294 294 294 294 294 294 294 293 293 292 292 292 291 292 292 292 292 291 291 290 290 290 290 290 290 291 290 290 290 290 290 290 290 290 290 290 290 290 290 290 290 290 290 290 290 290 290 290 290 290
296 296 296 296 296 297 298 299 300 301 302 303 303 303 303 302 301 301 301 300 299 297 296 296 296 296 296 296 296 295 295 294 294 294 294 294 294 294 294 294 294 294 293 293 292 291 291 292 292 292 292 292 291 291 290 290 289 289 289 290 291 291 290 290 290 290 290 290 290 290 290 290 290 290 290 290 290 290 290 290 290 290 290 290 290
296 296 296 297 297 297 298 299 299 300 301 302 303 303 302 301 301 300 300 298 296 295 296 296 297 296 296 296 295 295 295 295 295 294 294 294 294 294 294 294 294 293 293 292 291 291 291 292 292 292 292 291 291 290 290 289 288 288 289 290 291 291 290 290 290 290 290 290 290 290 290 290 290 290 291 291 291 291 291 291 291 291 291 291 291
296 297 297 298 297 297 298 299 300 300 300 301 302 302 301 300 299 298 297 296 295 296 296 296 296 296 296 296 295 295 295 295 295 295 295 294 294 294 294 294 293 293 292 291 290 291 292 292 292 292 291 291 291 290 289 288 288 288 289 290 291 291 290 290 290 290 290 290 291 291 290 291 291 291 291 291 291 291 291 291 291 291 292 292 292
297 298 298 299 298 298 298 299 301 301 301 301 301 300 299 298 297 296 295 295 296 296 297 296 296 296 295 295 295 295 295 295 295 295 295 295 295 295 294 294 294 293 292 290 290 291 292 292 292 291 291 291 290 290 289 288 287 287 289 290 291 291 290 290 290 290 290 290 291 291 291 291 291 291 291 291 291 291 292 292 292 292 292 293 293
298 299 299 300 299 299 299 300 301 300 300 299 298 298 297 296 295 295 296 296 297 297 297 296 296 295 295 295 295 295 295 295 295 295 295 295 295 294 294 294 294 292 290 290 291 292 292 292 291 291 291 290 290 289 289 288 287 287 289 290 291 291 290 290 290 290 291 291 291 291 291 291 291 291 291 292 292 292 292 292 292 292 293 293 293
298 299 299 299 299 299 299 299 299 298 297 297 296 296 296 296 296 296 296 296 297 296 296 296 296 296 295 295 294 294 295 295 295 295 295 295 294 294 294 294 293 291 289 290 291 292 292 291 291 291 291 290 290 289 289 288 287 287 288 290 291 290 290 290 290 290 290 291 291 291 291 291 291 291 292 292 292 292 292 292 293 293 293 293 293
297 297 297 297 297 297 297 297 297 296 296 296 296 296 296 296 296 296 296 296 296 296 296 296 296 296 296 295 294 294 294 295 295 295 294 294 294 294 294 294 292 289 289 291 292 292 291 291 291 291 291 291 290 290 289 288 287 287 288 290 291 290 290 290 290 290 290 291 291 291 291 291 291 291 292 292 292 292 292 292 293 293 293 293 293
296 296 296 296 296 296 296 296 296 296 296 296 296 296 296 296 296 297 297 297 297 297 296 296 296 295 295 294 294 295 295 294 294 294 294 294 294 293 293 293 291 289 290 291 292 291 291 291 291 292 292 291 291 290 290 289 288 287 288 290 291 290 290 291 290 290 290 290 291 291 291 291 291 292 292 292 292 292 292 293 293 293 293 293 293
297 297 296 296 296 296 296 296 296 296 296 296 296 296 296 296 297 297 297 297 296 296 296 295 295 295 294 294 294 295 294 294 294 294 294 294 293 293 293 292 290 289 290 291 291 291 291 291 292 292 291 291 291 290 290 289 288 287 288 290 291 291 290 291 290 290 290 291 291 291 291 291 291 292 292 292 292 292 293 293 293 293 293 294 294
297 297 297 297 297 296 296 296 296 296 296 296 296 297 297 297 297 297 296 296 296 296 295 295 295 295 294 294 294 294 294 294 293 293 293 293 293 293 292 290 289 289 291 291 291 291 291 292 292 291 291 291 291 290 290 290 289 287 288 290 291 291 291 291 290 290 290 291 291 291 291 291 291 292 292 292 292 292 293 293 293 293 293 294 294
297 297 297 297 297 297 297 296 297 297 297 297 297 297 297 297 297 296 296 296 296 295 295 295 295 294 294 294 294 293 293 293 292 292 293 293 293 292 290 289 289 290 291 291 290 291 292 292 291 290 290 290 290 289 289 289 289 288 288 289 291 291 291 290 290 290 290 290 291 291 292 292 292 292 292 292 292 292 293 293 293 293 293 293 294
297 297 297 297 297 297 297 297 297 297 297 296 296 296 296 296 296 296 295 295 295 295 294 294 294 293 293 293 293 293 293 292 292 292 293 293 293 291 289 288 289 290 291 291 291 291 292 291 290 290 289 289 289 289 288 289 289 288 287 289 290 291 291 290 290 290 290 290 291 291 291 292 292 292 292 292 292 292 292 293 293 293 293 293 293
296 296 296 296 296 296 296 296 296 296 296 296 296 295 295 295 295 295 295 295 294 294 293 293 292 292 292 292 292 292 292 292 292 293 293 293 292 290 288 288 289 290 290 290 290 291 291 290 289 289 289 288 289 289 288 289 288 288 287 288 290 291 291 291 291 290 290 290 290 291 291 291 292 292 292 292 292 292 292 292 292 293 293 293 293
Wind_Speed
28 27 28 30 29 29 30 26 21 21 21 19 17 15 14 13 12 11 9 8 6 5 5 4 4 4 5 6 6 5 4 3 2 1 1 1 1 1 1 1 1 1 2 2 1 1 1 0 1 2 3 4 4 4 4 4 4 4 5 6 6 7 7 7 7 6 6 7 8 8 8 8 7 7 9 9 9 11 13 14 14 14 14 12 10
26 26 28 29 28 29 29 26 23 22 22 22 21 19 19 17 15 13 11 10 8 6 5 4 4 4 4 4 4 4 5 4 4 3 3 4 4 4 4 3 3 3 2 3 3 2 2 2 2 1 2 2 3 4 5 5 5 5 5 6 7 8 9 9 10 8 7 6 7 8 8 8 8 8 9 10 10 9 10 11 12 11 11 11 9
23 24 26 27 29 29 28 26 24 22 23 24 23 23 23 20 18 16 14 12 11 10 9 8 7 7 6 6 6 5 5 4 4 4 4 4 5 5 6 6 6 5 5 4 4 4 4 4 3 2 2 3 3 4 4 4 4 5 5 6 7 8 9 10 11 11 10 9 9 10 10 10 10 10 10 10 11 11 10 10 11 11 11 12 11
18 21 23 27 30 30 28 27 26 24 25 25 23 24 25 22 20 19 16 15 14 13 13 12 11 10 9 9 9 8 8 8 7 7 6 5 5 5 5 6 6 6 5 6 6 6 5 5 5 4 3 4 4 5 4 4 4 5 5 6 7 8 8 9 10 12 12 12 11 11 12 12 12 12 13 12 11 11 11 11 11 12 12 13 13
17 21 23 27 31 30 26 26 27 27 25 23 22 26 27 24 21 19 16 15 15 15 15 14 13 12 12 12 11 11 10 11 11 11 10 9 8 8 7 7 7 6 6 6 7 7 7 6 6 5 4 4 5 5 6 6 6 6 7 7 7 8 8 9 10 11 12 14 13 13 13 14 14 14 15 16 15 14 13 12 13 14 14 13 13
20 25 27 28 29 26 24 26 27 27 25 22 22 24 25 23 20 19 17 17 17 17 16 15 14 14 13 14 14 13 13 13 14 14 13 13 12 12 12 11 11 10 9 9 9 9 8 8 7 7 6 5 5 6 7 8 8 9 9 9 9 9 9 9 10 11 11 13 14 15 15 16 17 16 16 18 19 20 19 17 15 15 16 16 15
23 26 26 25 23 20 20 24 25 24 23 21 20 20 20 19 18 19 19 19 19 19 19 18 16 15 15 15 15 15 15 15 15 16 17 16 16 16 16 15 14 14 13 12 11 11 11 10 10 9 8 7 7 7 8 9 10 11 11 11 11 11 11 11 11 11 12 13 14 16 17 18 19 20 19 20 20 21 22 23 22 19 19 19 18
21 22 22 21 18 16 16 19 20 21 21 20 20 20 19 18 19 20 21 21 21 21 21 19 16 16 16 18 19 19 19 18 18 18 19 19 19 19 19 19 18 17 16 16 15 14 14 13 12 10 9 8 8 9 11 12 12 12 12 12 12 12 12 13 13 13 14 15 16 18 19 20 21 21 21 22 22 21 21 23 25 25 24 22 21
17 18 18 18 17 16 15 16 17 18 19 19 18 17 15 15 16 17 18 19 19 17 16 14 13 14 16 18 19 20 21 21 21 21 22 21 21 21 20 20 20 19 18 18 18 18 17 17 16 14 11 10 10 10 12 13 13 13 13 13 13 13 13 14 14 14 15 17 18 20 21 21 22 22 23 22 23 23 23 24 25 26 27 26 23
14 14 15 15 14 13 12 12 12 12 14 14 13 12 12 13 12 11 11 11 11 11 11 11 12 12 13 14 15 17 18 20 21 21 22 23 24 23 22 22 22 22 21 20 21 21 21 20 20 17 14 13 13 12 12 14 14 14 14 14 14 14 15 15 15 16 17 19 20 21 22 22 22 22 24 23 23 23 23 25 26 27 28 29 26
11 11 11 11 10 10 10 9 9 8 9 9 8 8 8 8 7 7 7 7 7 8 9 9 9 9 9 10 11 13 15 16 17 18 18 20 22 24 24 24 24 24 24 24 23 23 24 24 23 21 18 15 15 14 13 13 14 14 15 15 16 16 16 16 17 18 19 20 21 21 22 23 23 22 23 24 24 24 24 24 26 27 28 30 29
9 10 9 9 9 10 10 9 9 8 8 7 7 7 7 7 7 7 8 8 8 8 8 8 8 8 9 9 9 9 11 12 13 14 14 15 17 19 21 22 23 24 26 27 26 26 26 26 26 24 21 17 16 15 14 13 14 16 16 17 18 18 18 18 19 20 21 22 23 24 25 26 26 25 25 25 25 25 25 25 26 27 28 29 31
8 9 8 8 9 9 9 9 9 9 8 8 8 8 8 8 8 8 9 9 9 10 10 9 9 9 9 10 9 9 10 11 12 13 13 14 15 17 18 19 20 21 23 26 27 27 27 28 27 24 20 18 17 16 14 13 14 17 19 20 21 20 21 21 21 22 23 24 25 25 26 28 29 28 27 28 28 28 28 28 28 29 30 30 31
8 7 7 9 9 8 8 9 9 9 9 9 9 9 9 9 9 9 10 10 10 11 11 11 11 11 11 11 11 11 12 12 13 13 14 14 14 15 16 17 18 19 21 23 25 26 27 28 26 22 19 18 17 16 13 12 15 18 20 21 21 21 21 22 22 23 25 26 27 27 27 29 30 30 29 30 31 31 31 32 32 32 33 33 33
6 6 7 8 8 8 9 10 10 10 9 10 11 11 11 12 13 13 14 14 13 13 13 13 12 12 12 11 11 12 14 14 14 14 15 15 15 16 15 16 17 18 19 21 23 25 27 26 23 20 19 18 16 14 13 15 18 21 21 21 21 21 21 22 23 25 26 28 29 30 30 31 32 32 32 32 33 34 34 35 35 35 36 36 36
6 6 7 8 8 8 9 10 11 11 11 12 12 12 12 11 11 12 12 13 13 14 14 14 14 13 12 12 12 13 15 16 16 15 15 16 17 16 15 15 14 14 15 17 21 25 26 25 22 20 18 16 15 14 16 19 21 22 22 21 21 22 22 23 24 26 28 29 31 32 33 34 34 35 35 35 36 36 36 36 36 36 38 39 39
7 6 6 7 7 8 8 9 11 12 11 11 11 10 9 8 8 7 7 8 9 10 12 13 13 13 12 13 14 15 17 17 17 16 15 15 15 15 14 12 11 11 12 16 20 23 23 22 20 18 16 15 16 17 20 21 21 21 21 21 22 22 22 24 26 28 29 30 31 33 34 36 37 38 38 37 35 35 35 36 36 35 37 39 39
8 7 7 7 8 9 10 10 11 11 11 11 11 10 8 8 8 9 9 8 8 8 10 12 13 14 13 14 15 16 16 17 17 16 15 15 14 13 11 10 10 12 14 17 20 21 20 18 17 17 17 18 19 20 21 21 20 20 20 21 22 23 24 26 28 29 30 31 32 34 36 36 37 36 35 33 31 29 30 32 31 31 33 35 36
10 9 8 8 8 9 9 10 11 12 13 13 12 11 11 12 13 13 12 11 10 10 10 11 13 15 15 15 16 16 17 17 17 17 16 16 15 12 10 9 10 14 17 18 20 20 19 18 18 19 19 20 21 21 20 20 20 20 21 21 23 24 26 28 29 30 32 33 34 35 35 34 32 31 30 28 26 24 23 24 25 26 28 30 31
15 14 12 10 9 9 10 11 12 13 13 13 13 13 14 15 16 15 14 14 15 15 14 13 13 15 16 17 17 17 18 18 18 17 16 16 15 11 9 10 11 14 17 18 20 20 20 20 20 20 20 20 20 20 20 21 21 21 22 23 25 27 29 30 31 32 34 34 34 33 31 29 28 27 25 24 22 20 20 20 20 21 23 25 26
17 18 17 16 14 14 13 13 14 14 15 15 16 16 16 16 16 16 16 17 18 19 19 18 15 16 17 17 17 17 17 17 17 16 15 15 13 11 10 11 12 14 16 18 20 20 19 19 19 19 19 19 20 21 22 22 23 24 26 27 29 30 31 31 32 32 32 32 30 29 28 26 25 24 23 22 21 20 20 19 18 18 19 21 23
16 16 17 17 17 16 16 16 16 17 17 17 17 17 16 16 16 17 19 20 20 21 22 21 18 16 16 16 15 16 16 15 15 14 13 12 11 10 11 13 14 16 17 17 18 17 17 17 18 19 19 20 21 22 23 24 25 27 28 28 28 29 29 30 30 29 29 28 28 27 26 25 24 24 23 22 21 20 21 20 19 18 19 20 21
15 15 15 15 16 16 16 17 17 17 17 17 18 18 17 16 16 17 20 21 22 23 24 21 18 16 15 14 14 15 15 14 13 12 11 11 10 9 10 13 15 17 17 16 16 16 17 18 19 20 20 21 22 23 25 25 26 26 26 25 26 26 26 26 26 26 26 26 26 27 27 26 25 25 24 23 22 22 22 23 22 22 22 22 21
16 17 17 18 19 19 20 20 19 19 18 18 19 19 19 19 19 20 22 23 23 24 24 20 17 16 15 13 13 13 14 13 12 12 11 10 10 10 11 13 15 16 16 16 16 17 18 19 19 20 21 22 23 24 24 24 23 23 23 23 23 23 23 23 24 24 24 25 27 28 28 27 26 25 25 24 24 25 25 25 25 25 25 25 24
17 17 17 16 17 18 20 21 21 20 20 20 21 21 21 21 21 21 22 24 24 24 23 20 16 15 14 12 12 13 14 14 13 12 12 12 12 13 13 13 13 14 15 17 19 19 19 19 19 20 21 21 22 21 21 20 20 20 20 21 21 21 22 23 24 25 26 26 27 27 27 26 25 24 24 25 25 26 26 26 26 26 26 27 28
19 19 18 17 16 15 17 19 20 21 22 22 22 21 20 20 20 20 21 23 24 23 22 20 17 14 13 13 13 14 15 14 14 13 13 14 15 15 14 14 14 14 16 17 19 18 18 18 19 19 19 19 18 18 18 17 17 18 18 20 21 22 23 24 25 25 25 25 24 24 23 23 23 23 23 24 25 25 25 26 27 27 27 28 30
20 20 20 20 19 17 16 17 18 19 20 20 21 21 21 21 22 22 22 23 24 24 22 20 17 15 14 14 14 14 14 14 14 14 15 16 16 15 15 15 15 16 15 16 16 16 17 17 17 16 16 16 16 16 16 17 18 19 20 21 22 22 23 23 22 22 23 23 24 25 24 24 24 24 24 24 25 25 25 26 28 28 28 29 30
21 22 22 21 21 20 18 16 16 17 18 20 21 22 22 22 22 22 22 22 23 22 19 16 15 15 14 13 13 14 14 14 14 16 16 16 15 15 14 14 14 14 14 14 14 14 14 14 14 14 14 14 14 15 16 18 19 20 20 20 20 20 19 20 20 21 23 25 26 27 27 26 26 25 25 25 25 25 25 26 27 28 29 29 29
23 24 25 24 24 22 21 18 16 17 19 21 22 23 23 22 21 20 20 20 20 18 15 15 15 14 12 12 13 13 13 14 15 16 16 15 14 13 12 12 12 12 12 12 11 11 11 11 11 12 12 12 13 14 16 16 17 17 17 17 17 17 18 20 21 23 24 26 27 27 27 27 27 26 26 26 26 26 25 26 27 28 29 29 30
25 26 27 27 27 25 24 22 20 19 20 21 22 22 22 21 22 21 21 20 17 16 16 15 14 13 12 12 13 12 10 12 15 17 15 13 12 12 11 11 11 10 9 8 8 9 9 10 11 11 11 11 13 14 15 16 16 16 17 18 18 19 20 21 22 23 24 25 26 27 27 27 28 27 27 28 28 27 27 27 28 28 29 29 30
25 25 25 27 27 26 25 24 23 22 20 20 21 21 21 21 23 24 22 19 16 16 16 14 13 14 13 11 11 10 8 10 15 16 13 12 11 10 10 9 7 5 5 6 7 8 8 9 9 9 10 12 14 16 16 17 18 18 19 20 20 21 22 22 23 24 25 25 26 26 26 27 27 27 27 27 28 28 28 28 28 29 29 29 29
25 24 24 24 25 25 24 23 23 22 21 18 18 19 20 22 23 23 19 17 16 16 15 14 14 14 12 9 9 10 11 13 14 14 12 11 9 7 6 5 4 5 6 6 6 6 6 6 7 10 12 14 16 17 18 18 18 19 20 21 22 22 23 23 24 24 24 25 25 25 25 25 26 26 26 26 27 27 28 28 28 28 28 28 28
28 27 26 25 25 25 24 23 23 22 21 19 19 20 21 22 22 20 18 16 16 16 15 14 13 12 10 9 8 9 11 14 14 12 10 8 7 6 6 5 5 5 5 5 6 6 7 8 10 13 15 15 16 17 17 17 18 18 20 21 22 23 23 23 23 23 23 23 23 24 24 24 25 25 26 26 26 26 27 28 28 27 27 27 27
35 33 30 28 27 26 25 24 24 23 21 20 21 22 23 23 23 22 21 20 19 17 15 13 10 9 10 10 10 11 13 14 12 10 8 8 8 8 7 6 4 3 4 5 6 7 9 11 13 14 15 15 16 16 16 16 17 18 19 21 22 22 22 21 22 22 22 23 24 24 24 24 24 24 24 25 24 25 26 26 26 26 26 26 27
38 37 35 32 29 27 25 23 23 23 23 22 22 23 24 23 23 23 23 22 19 17 14 13 12 12 12 13 13 13 13 12 10 10 10 10 9 8 7 5 2 2 4 6 7 8 9 11 13 14 15 15 15 15 14 15 16 18 20 22 22 22 21 21 21 22 23 23 24 23 23 23 23 22 23 23 23 24 25 25 25 25 25 25 26
36 36 36 36 33 30 27 24 23 23 23 23 23 24 23 23 24 24 22 19 17 15 15 17 18 18 16 15 15 14 13 12 11 11 11 10 9 7 5 3 1 3 5 6 7 8 10 12 13 14 14 14 13 13 13 15 18 19 20 21 21 20 21 21 23 23 23 23 23 22 22 22 22 22 22 23 23 24 24 24 24 24 24 24 25
32 33 34 35 34 32 30 27 25 24 23 23 24 23 23 24 26 24 20 17 16 17 19 22 23 23 21 19 17 15 13 12 12 11 11 9 8 6 4 2 2 4 5 6 7 9 11 12 12 13 13 12 11 12 14 16 17 19 19 19 19 20 21 23 24 24 24 23 22 22 22 22 22 21 22 23 23 23 23 23 23 23 23 22 22
28 28 29 30 31 32 31 30 29 26 24 23 22 22 23 24 23 20 17 16 18 22 25 26 25 23 22 20 17 15 14 14 14 13 11 9 7 5 4 3 3 5 6 7 8 9 11 11 11 11 11 10 10 13 14 15 17 19 20 21 21 21 23 25 25 25 25 24 23 22 22 22 22 21 21 22 23 23 22 22 22 22 22 21 21
26 24 23 24 28 29 28 29 28 27 26 24 22 20 20 21 21 20 19 21 25 27 27 26 23 21 19 18 16 16 15 14 14 12 11 9 7 6 5 4 5 6 6 8 9 10 10 9 9 9 9 8 10 12 13 16 18 21 23 24 23 23 25 26 27 27 26 25 24 23 23 23 22 21 21 21 21 21 21 21 21 21 21 21 20
23 21 18 19 24 26 25 23 23 24 25 25 21 17 18 21 24 24 24 26 28 27 24 22 20 19 18 16 16 15 14 13 12 12 11 10 8 7 6 6 6 6 7 9 10 9 8 7 8 8 7 7 9 12 14 18 21 23 24 25 24 24 25 26 27 28 27 25 24 23 23 22 22 21 21 20 20 20 20 20 20 20 19 19 18
18 19 16 17 20 24 24 20 17 18 20 20 18 18 21 24 25 25 25 26 26 23 21 19 19 18 17 16 14 13 13 13 13 12 11 10 9 8 8 8 7 7 8 10 9 7 6 6 7 6 6 7 10 13 16 19 22 24 25 26 24 24 25 27 27 28 27 25 24 23 23 22 21 21 21 20 19 19 19 19 19 18 17 17 16
17 18 17 17 19 21 22 20 17 16 16 17 18 21 23 24 24 25 26 26 24 22 20 19 18 18 18 16 13 12 12 12 11 9 9 9 9 8 8 8 7 7 9 9 7 5 5 6 5 5 6 9 12 15 17 20 23 24 26 26 25 24 26 27 28 29 28 26 24 23 23 22 21 20 20 19 18 18 18 17 17 16 16 15 14
15 15 16 18 21 22 22 21 19 18 18 18 21 24 26 27 26 25 24 22 21 20 20 19 18 18 17 15 13 13 12 11 10 9 8 8 8 7 7 6 6 8 9 7 5 4 5 5 5 6 7 10 13 15 18 21 23 25 26 26 25 24 25 28 29 30 29 27 24 23 23 22 21 21 20 19 18 18 17 16 15 15 14 13 12
16 17 18 21 23 23 23 22 21 22 24 25 27 28 28 26 24 22 20 20 20 20 19 18 16 16 15 13 12 12 12 12 11 10 9 8 7 7 7 7 7 8 7 5 4 4 4 4 5 6 8 10 12 15 18 20 22 24 26 26 25 24 25 27 29 30 30 28 25 24 23 22 21 20 20 19 18 18 17 16 15 14 13 13 12
24 23 23 24 24 24 25 26 28 30 30 30 28 26 24 22 21 20 19 19 18 18 18 17 16 16 16 14 13 12 13 13 12 10 9 8 7 7 7 8 8 6 5 4 4 5 4 5 7 8 8 10 12 14 17 19 22 23 25 25 24 24 25 27 28 29 29 28 26 24 23 21 21 20 19 19 18 17 17 15 14 13 12 11 11
32 31 30 29 29 29 30 30 30 29 28 26 24 22 20 19 18 17 17 17 17 17 17 16 15 15 15 15 13 13 13 13 12 10 9 8 8 8 8 8 7 5 4 4 4 4 5 7 8 9 9 10 12 14 17 19 21 22 23 24 23 23 23 25 27 28 28 27 25 23 22 21 20 19 18 18 17 16 14 13 11 10 10 9 9
32 32 31 31 30 29 27 25 24 22 21 19 19 18 18 17 16 15 15 16 17 16 16 15 15 15 15 15 14 14 13 12 11 10 9 9 8 7 7 8 6 4 3 3 3 4 6 8 8 8 8 10 12 14 17 19 20 21 22 23 22 22 23 24 26 27 28 27 25 23 21 20 19 18 17 17 17 15 13 12 11 9 9 8 8
26 26 25 24 23 22 21 19 18 17 17 16 16 17 17 17 17 17 17 17 16 16 15 15 15 14 15 15 14 13 13 12 11 10 9 8 7 6 7 6 4 2 2 1 3 6 7 8 7 7 7 9 12 14 17 18 19 21 22 22 22 22 23 23 25 26 27 27 25 23 20 19 18 17 17 17 17 15 14 13 12 10 9 8 7
21 21 20 19 19 18 17 17 17 16 16 16 16 17 17 17 17 18 18 17 16 16 16 15 14 14 14 14 14 14 13 11 10 10 8 7 6 6 6 3 1 0 1 3 5 6 7 7 7 7 8 10 13 15 17 18 19 20 21 22 22 22 22 23 24 25 26 27 26 24 21 19 18 16 16 16 16 15 14 13 13 12 11 10 9
14 14 15 15 16 16 15 15 16 16 15 15 15 15 16 16 17 17 17 17 17 16 15 14 14 14 14 14 14 13 12 10 9 8 7 7 7 5 3 1 1 1 3 4 5 6 7 6 6 7 8 11 13 15 17 18 19 19 21 22 22 22 23 24 25 25 25 26 27 25 22 19 17 16 15 15 15 14 14 13 13 13 12 12 11
9 9 10 11 11 12 12 13 14 14 14 14 14 14 15 15 15 16 15 15 14 14 13 12 12 12 12 12 12 12 11 10 9 8 8 8 6 4 2 3 3 4 4 5 5 6 6 5 5 6 9 11 13 15 17 18 18 19 19 20 21 21 22 24 26 26 26 26 26 25 23 20 17 16 16 15 15 15 14 14 13 13 13 13 12
Wind_Direction
218 214 206 204 205 207 211 210 204 203 207 212 210 202 203 206 208 214 215 218 219 204 186 170 166 174 175 174 172 172 176 173 180 222 286 301 301 306 290 184 170 183 173 168 157 160 192 178 27 8 2 4 9 8 1 354 353 357 355 348 345 347 351 352 353 7 11 353 348 348 342 337 329 314 303 294 285 277 273 273 272 270 269 266 264
213 212 206 201 205 210 212 212 207 206 209 212 210 206 205 204 206 211 213 216 220 221 221 212 203 205 210 216 212 204 204 200 203 220 235 248 249 252 256 251 251 256 234 211 227 257 265 239 211 236 304 309 331 344 341 340 341 342 341 333 330 331 331 331 330 335 349 352 345 340 339 338 335 330 323 315 310 301 289 283 279 274 268 264 261
203 205 205 201 206 212 212 209 207 208 212 213 211 208 206 203 205 210 211 210 212 217 226 231 231 228 229 238 246 250 245 236 236 243 247 247 243 243 249 255 257 259 257 248 247 264 283 283 265 262 299 297 312 331 330 327 323 321 321 317 315 316 316 314 313 316 325 338 342 335 332 332 330 327 322 317 316 312 304 297 290 284 278 272 269
200 202 205 206 212 216 213 207 204 207 212 214 210 207 206 207 209 212 214 214 217 221 226 233 240 246 251 250 250 256 260 263 265 262 261 257 249 246 250 260 263 262 265 268 265 263 268 275 280 290 314 318 324 335 334 324 309 299 296 297 301 305 305 305 308 311 316 324 332 332 327 325 324 323 317 312 310 307 304 303 299 291 284 279 277
198 198 204 210 215 217 212 206 203 205 207 206 206 207 208 208 208 213 220 225 230 233 234 240 247 257 264 262 257 259 264 269 272 271 272 267 258 255 257 261 269 272 276 282 282 277 271 267 266 272 291 308 319 331 333 325 315 304 298 297 299 302 302 303 305 308 310 315 322 325 322 319 317 318 315 311 307 303 299 298 295 291 288 284 279
190 194 203 210 213 212 208 206 207 211 212 210 213 214 210 207 208 214 224 232 235 237 240 247 254 259 262 259 257 258 261 267 270 272 273 270 265 263 260 259 264 267 270 278 285 288 288 286 279 276 284 298 307 315 318 317 315 312 308 305 304 303 301 301 302 305 307 312 316 318 318 316 314 313 313 311 309 306 302 297 291 287 287 285 281
187 194 201 207 212 211 206 208 212 219 221 219 224 227 222 218 218 219 222 226 229 233 241 249 255 258 258 255 254 253 253 259 265 270 271 270 269 267 264 263 264 265 265 267 270 276 283 287 288 288 292 297 301 304 308 312 314 311 307 306 307 307 306 306 306 307 308 310 312 313 314 314 313 311 310 308 305 303 300 298 295 291 286 284 284
191 199 204 210 216 212 206 211 218 224 225 226 234 240 238 236 234 233 234 234 236 240 246 251 256 258 257 256 259 259 256 254 256 262 267 268 268 267 266 266 267 267 265 262 261 262 267 274 279 282 286 287 288 298 307 309 308 306 305 307 308 309 308 307 307 307 307 309 310 310 310 310 309 307 306 305 302 298 297 296 296 295 292 289 288
196 203 209 215 219 218 221 227 230 231 232 235 241 245 244 241 241 242 242 243 245 248 251 255 258 258 257 258 262 264 262 260 258 261 265 268 267 266 265 266 267 266 262 259 260 261 264 271 277 277 278 276 275 285 300 304 301 299 302 306 308 307 306 304 303 303 304 306 306 306 306 307 307 307 306 305 304 301 299 298 296 295 294 292 291
192 199 205 211 214 216 222 225 225 226 226 230 235 238 239 240 240 240 239 241 245 248 252 255 255 258 260 260 261 262 262 262 262 263 263 264 265 266 266 266 267 266 261 255 255 259 264 269 272 271 267 266 267 274 288 297 298 296 300 307 310 308 305 301 298 299 302 305 306 306 306 307 309 310 309 307 305 302 299 298 296 296 295 294 291
174 183 191 195 198 199 200 199 201 205 207 211 215 214 214 217 220 221 223 224 229 235 242 247 250 255 259 262 265 264 262 261 261 260 258 258 261 263 264 265 266 267 265 258 254 256 260 262 264 262 259 258 260 265 277 290 295 294 299 308 312 309 304 298 294 299 306 309 309 310 311 311 311 312 310 307 305 303 302 301 300 299 300 299 297
173 178 182 183 188 188 186 184 183 183 185 187 185 183 184 189 194 203 210 213 218 228 237 246 253 255 257 264 270 271 268 265 262 261 258 258 261 262 264 265 266 268 266 261 257 256 255 255 256 255 254 253 254 258 270 285 292 295 301 308 310 308 302 296 295 302 309 313 312 312 313 314 314 314 314 311 308 307 306 304 304 303 301 300 300
189 190 186 182 186 186 183 182 182 186 190 191 193 196 199 204 207 212 217 222 229 238 246 254 259 262 264 270 278 283 280 271 266 266 265 264 265 267 267 267 267 267 264 261 259 256 251 250 250 248 248 249 252 259 269 281 291 297 302 305 304 301 296 293 297 304 309 311 310 310 312 312 312 312 314 313 311 310 308 306 305 304 301 300 299
182 193 192 188 190 193 193 194 197 202 203 202 205 207 208 215 223 227 231 235 239 245 251 255 259 266 272 276 282 288 286 279 274 272 270 270 269 270 270 269 267 266 263 261 258 253 248 247 245 244 244 248 256 264 270 279 290 296 297 296 294 292 290 291 297 302 304 306 307 308 309 308 308 308 310 310 310 309 308 306 304 303 301 300 299
183 201 202 199 202 206 206 205 207 212 215 217 220 222 226 231 235 238 241 244 246 249 252 256 260 266 273 277 280 282 282 281 281 280 278 277 275 274 274 272 268 265 263 260 252 243 240 239 239 241 247 254 264 269 273 283 292 293 291 289 287 288 290 294 297 299 300 303 304 305 305 305 306 306 307 307 307 306 305 302 301 300 300 298 297
202 206 208 218 229 231 225 219 218 222 225 227 231 236 237 233 229 230 233 237 241 245 250 255 258 261 266 271 272 274 276 280 283 285 284 281 279 277 275 273 271 269 266 258 248 239 234 235 239 246 253 261 264 266 274 284 288 287 287 288 289 290 293 295 295 296 297 299 300 301 302 304 304 304 305 305 304 303 301 297 296 296 294 293 293
207 206 215 231 240 246 246 236 230 232 236 241 248 251 246 236 232 234 236 235 238 242 244 248 252 255 260 266 268 270 274 279 285 288 288 285 282 279 277 278 280 278 266 251 241 235 232 235 242 248 253 255 257 264 274 279 280 281 284 287 289 291 292 291 290 290 292 293 295 297 298 300 300 300 300 300 300 299 297 294 295 294 292 291 292
208 211 224 237 245 252 252 241 234 238 249 260 269 273 273 273 275 276 271 263 258 254 249 245 246 250 256 262 267 270 272 277 284 290 292 292 289 286 284 286 283 270 255 240 230 229 234 239 243 244 247 252 258 265 271 273 276 281 285 286 286 285 284 283 282 283 285 287 290 292 293 294 295 295 296 296 296 295 293 292 294 293 291 290 291
223 225 232 240 243 244 242 235 235 243 254 262 269 276 283 286 286 285 281 276 277 279 275 262 252 249 252 256 263 269 272 275 280 286 291 294 294 291 285 278 266 251 242 234 231 235 240 241 240 243 251 259 264 268 272 275 278 281 282 281 280 279 279 280 281 284 286 288 290 291 292 293 293 293 294 294 293 292 290 291 294 294 292 291 291
236 237 240 243 241 242 243 243 243 246 250 256 262 270 277 279 280 282 284 287 290 293 295 288 270 256 252 254 259 266 270 272 275 277 281 286 289 284 273 265 258 249 245 243 243 243 243 242 244 251 258 262 267 271 274 275 276 278 279 280 280 280 281 284 287 290 292 293 294 294 295 295 295 296 296 296 295 293 292 293 295 297 297 296 294
253 250 250 250 252 257 260 260 258 258 258 260 265 269 272 274 278 283 287 290 293 295 299 299 286 266 258 257 262 267 267 265 265 266 269 275 277 271 263 260 257 253 249 245 242 242 245 252 256 260 261 261 263 266 268 271 275 278 279 279 279 281 284 287 290 292 293 294 295 295 295 296 296 298 299 300 300 299 297 297 297 296 296 297 298
257 254 252 254 257 261 263 263 263 263 262 263 266 268 270 273 276 280 283 285 288 292 296 297 289 274 267 267 269 271 266 260 258 258 259 262 261 256 253 253 252 252 249 245 245 249 255 263 265 263 259 258 260 264 269 274 276 277 277 278 280 284 287 289 290 291 292 294 295 296 296 297 297 297 299 301 302 301 300 298 295 291 290 291 292
252 252 252 254 255 255 256 257 257 256 257 260 262 264 266 269 272 275 279 281 285 287 289 292 289 280 276 278 278 273 267 261 257 253 249 247 247 248 252 254 254 254 252 251 254 257 259 261 262 260 260 262 267 272 275 276 276 277 279 282 285 287 288 290 291 294 296 297 298 298 298 298 298 299 301 302 302 301 300 297 294 291 289 287 284
247 251 255 257 255 252 252 255 256 256 255 255 257 260 264 268 272 275 277 278 279 280 283 287 288 284 283 285 282 275 268 262 255 247 243 242 244 248 256 261 260 258 257 256 255 255 256 258 261 264 268 271 273 275 276 278 280 283 285 287 288 290 292 294 296 296 297 297 299 300 300 300 299 300 300 299 297 296 295 294 293 290 288 285 282
242 241 244 248 251 252 252 253 253 254 253 254 259 264 267 268 269 271 272 273 273 274 277 281 283 283 284 285 283 275 265 256 247 243 245 250 250 247 251 259 263 263 263 262 259 257 259 263 268 271 272 273 274 277 280 283 285 286 288 290 292 294 295 296 296 296 296 297 298 299 299 299 298 296 294 292 291 290 291 291 290 289 287 284 281
246 242 240 239 240 244 248 250 251 254 256 259 264 265 264 263 265 267 268 267 266 268 271 272 273 276 280 285 283 271 257 246 238 237 242 247 247 244 248 256 258 257 258 260 261 263 266 268 270 271 272 275 278 280 281 281 281 284 287 290 293 294 294 295 296 297 297 298 297 296 295 295 293 291 290 289 287 288 289 290 290 290 289 288 286
244 244 243 241 239 239 240 245 251 254 254 256 259 261 261 262 265 267 267 264 260 259 259 258 261 272 281 283 277 263 251 243 238 239 242 244 243 243 248 253 253 252 255 259 261 263 265 266 269 273 277 280 282 282 282 283 285 287 288 290 292 293 294 295 296 296 296 295 294 292 290 288 287 287 288 288 288 289 291 291 291 292 292 292 292
248 246 245 243 242 241 240 242 248 252 252 253 256 258 261 263 266 268 267 260 252 245 243 251 266 276 278 274 265 256 251 246 242 241 243 243 243 245 248 251 252 253 255 257 258 260 264 270 276 280 282 284 286 288 291 291 291 290 290 291 292 293 294 295 295 296 297 296 295 294 291 288 286 287 288 288 289 291 294 293 293 293 294 294 294
258 255 253 251 250 249 245 243 246 251 254 257 262 264 265 266 266 263 255 247 241 239 248 267 276 273 265 262 259 256 255 250 242 238 239 241 243 245 247 248 249 250 252 255 260 266 273 278 280 282 284 288 293 297 300 299 296 292 291 292 294 297 298 299 300 301 302 303 303 302 299 294 290 288 289 289 290 293 294 294 294 295 295 294 292
260 258 257 257 256 253 250 247 247 249 253 257 263 267 268 265 258 249 242 240 246 258 270 275 271 261 258 259 259 259 259 251 238 231 231 235 237 238 241 242 243 247 253 263 274 280 283 283 282 284 289 298 306 312 311 308 302 297 296 297 299 299 299 300 302 304 305 306 306 306 304 301 297 294 292 291 292 294 294 294 295 296 294 293 292
256 254 253 254 254 254 253 250 247 247 252 257 259 261 262 258 249 242 241 246 257 267 269 264 258 257 258 256 252 243 232 231 230 225 220 222 225 229 233 237 242 254 266 277 284 285 284 284 284 291 305 316 320 319 314 310 307 306 304 303 302 302 303 305 306 307 306 306 306 305 305 304 302 299 296 294 293 293 293 293 293 293 292 292 291
253 251 249 250 250 251 250 248 244 244 250 255 256 255 254 249 243 239 240 249 258 259 255 250 252 255 250 239 237 230 213 211 217 216 211 213 219 222 226 231 241 257 265 274 283 290 300 306 312 321 326 325 321 316 313 313 313 312 310 310 311 312 313 312 311 309 308 307 306 304 304 303 302 300 298 295 293 292 292 292 291 290 290 290 289
251 249 248 247 249 250 251 248 244 243 248 252 252 251 248 245 244 245 247 251 251 246 242 243 247 247 232 213 218 223 209 202 204 205 205 210 213 211 213 219 229 248 268 287 305 322 335 339 339 337 331 324 318 315 315 316 315 316 318 319 320 320 320 318 316 313 312 310 307 306 305 303 302 301 298 297 295 294 293 292 292 291 291 291 291
253 248 244 243 245 247 247 245 242 242 244 246 248 249 248 247 249 253 254 252 246 238 235 231 224 216 204 190 190 197 196 194 196 199 200 200 198 197 201 206 219 257 299 320 333 341 345 343 340 336 329 323 320 318 318 320 323 326 328 327 326 325 325 324 322 319 316 313 310 309 308 306 304 304 302 301 300 297 295 295 294 294 293 293 292
257 250 243 240 240 240 239 238 238 238 239 240 244 246 247 248 251 252 251 249 243 233 223 206 186 182 184 180 176 180 184 185 187 191 190 188 188 188 190 192 214 312 332 337 339 340 340 338 335 330 325 323 322 321 324 331 336 337 335 332 330 330 329 328 327 324 321 318 315 314 313 311 310 309 308 306 303 300 298 297 296 295 294 292 291
256 250 242 237 236 235 232 231 234 235 236 239 242 244 245 247 246 241 236 233 230 220 203 185 174 172 174 172 170 173 175 177 179 180 179 179 180 180 182 189 271 332 336 335 335 336 335 333 329 325 323 323 323 327 338 344 344 341 337 333 331 332 334 336 336 333 328 323 320 318 318 317 315 315 313 309 306 303 301 300 298 296 294 293 293
252 248 241 235 232 231 228 227 229 232 234 237 240 242 243 239 230 221 213 210 208 199 184 173 168 165 164 164 165 167 166 165 166 166 166 168 172 178 195 234 295 324 329 331 332 334 333 328 324 323 323 324 329 341 349 349 344 340 338 336 336 339 342 344 342 338 333 328 324 323 323 323 322 321 318 314 310 308 306 303 301 299 297 295 294
248 244 239 232 228 227 226 225 225 227 230 232 234 237 236 225 211 200 198 197 189 179 170 165 163 161 160 159 160 160 159 157 157 157 160 166 175 192 219 255 299 313 316 322 327 329 326 324 323 325 325 328 340 350 351 348 346 346 345 344 344 345 348 348 345 341 337 333 330 329 329 329 328 326 323 318 314 312 309 306 304 301 299 297 295
238 237 233 225 220 220 222 224 227 230 228 224 223 225 225 215 201 194 192 184 172 165 163 161 160 161 161 160 157 156 155 154 155 158 164 176 193 215 239 270 292 298 304 314 319 321 321 322 324 325 325 333 349 355 353 353 354 353 351 349 347 347 350 350 348 345 342 338 335 334 334 333 332 329 324 320 317 314 311 308 306 304 302 300 297
221 218 216 213 212 214 215 220 229 230 220 210 209 214 213 204 196 189 181 170 163 161 161 160 159 161 162 158 154 155 158 164 171 178 185 196 215 236 255 269 278 288 304 315 319 319 320 320 318 317 323 341 356 0 359 359 358 356 353 351 349 348 349 350 349 347 344 340 338 337 337 336 334 330 326 323 320 317 313 310 308 306 303 301 300
195 193 191 195 202 207 209 211 220 221 208 198 198 202 198 191 184 173 163 158 157 157 155 154 156 156 154 151 152 162 175 185 191 195 200 211 226 241 254 263 271 289 311 321 324 321 313 307 305 310 328 352 2 3 2 1 359 356 354 353 350 348 348 350 351 349 346 342 340 340 340 338 336 334 331 328 325 321 317 313 311 309 305 302 302
163 170 176 182 187 194 198 199 200 202 198 195 193 188 179 170 162 155 152 154 155 154 151 152 155 157 158 160 166 177 187 191 193 198 205 216 227 241 254 264 278 299 313 322 326 313 300 296 296 310 336 355 2 3 2 1 359 356 355 353 351 349 349 351 353 353 349 345 342 342 342 342 340 338 336 334 331 327 322 318 316 314 309 306 305
154 164 175 179 180 183 186 189 188 186 182 176 170 162 153 148 148 151 154 156 157 158 157 156 157 161 166 173 182 188 191 193 198 205 213 220 232 247 261 275 292 304 312 323 322 297 288 289 294 315 341 357 1 2 1 360 358 356 354 353 352 352 351 352 354 355 352 347 344 344 344 344 344 342 342 341 339 334 328 322 318 314 309 305 302
141 150 159 164 167 169 170 169 164 156 151 148 146 144 142 144 149 153 156 157 160 164 168 170 172 174 179 188 195 195 194 197 202 209 215 224 241 258 269 280 292 302 316 330 314 281 274 280 292 313 340 356 359 360 0 360 358 357 354 353 352 353 354 354 355 355 353 349 346 345 346 347 347 347 346 346 344 339 333 325 319 314 310 305 299
116 123 128 133 136 138 139 140 139 139 139 140 140 141 143 148 152 156 159 161 165 170 177 182 187 190 194 199 200 197 196 199 204 211 220 234 254 265 269 275 287 302 326 333 300 270 265 276 288 305 331 349 354 356 359 360 360 358 356 353 353 354 356 356 356 356 354 352 349 346 346 349 351 351 350 349 348 344 339 334 329 324 320 314 304
101 106 110 115 119 123 127 130 132 135 136 137 139 143 148 153 156 159 162 166 169 173 177 183 189 193 197 199 196 194 196 202 209 218 229 243 255 258 258 268 282 301 328 328 296 266 264 277 288 304 327 342 348 353 357 359 359 359 358 355 355 357 358 359 359 358 356 355 352 349 348 350 353 354 353 353 354 353 351 348 345 341 336 330 321
96 100 105 110 114 117 121 123 126 129 133 138 144 151 156 160 162 164 165 168 171 173 175 179 184 188 191 192 194 197 203 211 220 230 239 246 247 246 253 265 280 303 327 325 285 258 265 281 296 313 332 342 347 354 357 357 358 360 360 358 358 360 1 2 3 2 0 358 356 353 351 352 355 358 359 359 1 4 6 6 6 5 0 352 341
94 97 102 107 111 115 119 124 129 136 142 147 150 154 157 161 166 168 170 173 174 175 176 180 185 189 193 197 201 208 216 223 231 240 245 243 237 241 254 266 283 324 338 290 242 250 270 291 310 327 343 351 354 356 357 356 357 0 2 0 0 3 4 4 5 5 4 2 360 356 354 354 357 1 4 5 7 11 14 17 20 23 23 17 7
98 101 105 110 116 122 128 134 140 144 147 150 152 153 157 161 166 170 175 178 179 180 183 189 193 197 202 206 211 216 223 232 241 245 241 231 229 241 255 261 275 45 196 212 231 259 285 309 327 341 357 4 2 360 358 356 356 0 4 2 2 5 8 9 8 7 6 6 5 1 358 357 360 5 9 11 13 16 19 21 25 28 29 30 34
105 109 112 116 121 126 133 140 145 149 153 158 160 162 165 168 171 175 179 182 184 187 192 198 203 207 211 214 217 222 228 234 237 233 220 212 220 237 246 219 179 200 211 220 246 282 309 328 339 352 8 14 9 3 359 356 356 1 5 5 5 8 12 13 12 11 10 9 8 6 4 1 2 8 13 16 19 22 24 25 28 30 31 34 38
105 114 120 124 127 131 139 146 151 155 160 164 167 169 173 176 178 181 184 189 194 198 202 207 211 213 215 218 224 230 233 230 224 213 203 203 213 224 210 194 206 221 231 249 282 313 329 336 346 4 16 17 11 5 2 360 359 1 4 6 8 10 13 15 15 15 14 13 11 10 9 6 5 10 17 21 24 27 28 28 29 30 31 33 35